This demonstration page uses our WeatherBlox Daily Observations layout. Learn more.

Left ArrowRight Arrow

Hourly Observations for May 20, 2018

Temp ( °F °C ) Dew Point ( °F °C ) Humidity (%) Winds ( mph kmh ) Pressure ( in mb ) Visibility ( mi km ) Precip ( " mm )
12:53 am 00:53 Mostly Clear 46 7.8 40 4.4 79 79 ENE 6 9 30.12 1020 10 16 N/A
1:53 am 01:53 Mostly Cloudy 46 7.8 41 5 83 83 ENE 9 15 30.10 1019 10 16 N/A
2:53 am 02:53 Clear 47 8.3 41 5 80 80 E 13 20 30.07 1018 10 16 N/A
3:53 am 03:53 Clear 45 7.2 41 5 86 86 E 9 15 30.06 1018 10 16 N/A
4:53 am 04:53 Clear 43 6.1 41 5 93 93 ENE 10 17 30.06 1018 10 16 N/A
5:53 am 05:53 Sunny 43 6.1 40 4.4 89 89 ENE 6 9 30.04 1017 10 16 N/A
6:53 am 06:53 Sunny 47 8.3 41 5 80 80 N N/A 30.03 1017 10 16 N/A
7:53 am 07:53 Sunny 52 11.1 44 6.7 75 75 ENE 7 11 30.01 1016 10 16 N/A
8:53 am 08:53 Sunny 58 14.4 43 6.1 58 58 NE 6 9 30.00 1016 10 16 N/A
9:53 am 09:53 Sunny 62 16.7 43 6.1 50 50 VRB 5 7 29.98 1015 10 16 N/A
10:53 am 10:53 Sunny 65 18.3 44 6.7 47 47 NNW 7 11 29.97 1015 10 16 N/A
11:53 am 11:53 Sunny 67 19.4 44 6.7 44 44 W 6 9 29.96 1015 10 16 N/A
12:53 pm 12:53 Sunny 70 21.1 45 7.2 41 41 N N/A 29.94 1014 10 16 N/A
1:53 pm 13:53 Sunny 72 22.2 45 7.2 38 38 SE 6 9 29.91 1013 10 16 N/A
2:53 pm 14:53 Sunny 74 23.3 45 7.2 36 36 VRB 3 6 29.88 1012 10 16 N/A
3:53 pm 15:53 Sunny 77 25 45 7.2 32 32 VRB 3 6 29.86 1011 10 16 N/A
4:53 pm 16:53 Sunny 78 25.6 44 6.7 30 30 VRB 3 6 29.83 1010 10 16 N/A
5:53 pm 17:53 Sunny 79 26.1 43 6.1 28 28 N N/A 29.82 1010 10 16 N/A
6:53 pm 18:53 Sunny 78 25.6 45 7.2 31 31 NE 5 7 29.80 1009 10 16 N/A
7:53 pm 19:53 Sunny 72 22.2 49 9.4 44 44 NE 6 9 29.79 1009 10 16 N/A
8:53 pm 20:53 Sunny 66 18.9 52 11.1 61 61 SE 3 6 29.79 1009 10 16 N/A
9:53 pm 21:53 Clear 67 19.4 49 9.4 53 53 S 13 20 29.79 1009 10 16 N/A
10:53 pm 22:53 Clear 67 19.4 50 10 55 55 SSE 16 26 29.79 1009 10 16 N/A
11:53 pm 23:53 Clear 65 18.3 50 10 59 59 SSE 16 26 29.79 1009 10 16 N/A

Powered by AerisWeather